CAPE
2162 2186 2056 1648 1156 635 886 951 684 872 977 941 1086 1066 1344 1307 1388 1603 2082 2342 2212 2269 2270 1978 1514 1812 1728 1770 1368 1403 1142 1210 1384 1336 1246 1174 816 772 552 761 683 814 401 279 291 369 275 62 1 0 0 0 0 0 0 0 0 0 0 0 0 0 0
2258 2249 2079 1163 873 352 228 274 428 784 1216 1161 1326 1474 1513 1629 1539 1854 2246 2378 2282 2041 1805 1600 1446 1828 1793 1928 1674 1684 1585 1619 1615 1405 1372 887 838 936 707 684 688 680 285 343 329 338 335 212 92 0 0 0 0 0 0 0 0 0 0 0 0 0 0
2341 2212 2182 1602 1114 686 330 876 1380 1279 1295 1369 1296 1410 1659 1622 1529 1769 2205 2222 2275 2195 1809 1466 1468 1462 1617 2157 1773 1662 1698 1591 1345 1404 1366 1255 1088 856 764 875 495 419 398 260 234 138 216 167 75 5 0 0 0 0 0 0 0 0 0 0 0 0 0
2516 2349 1954 2073 1831 1769 1442 1464 1552 1470 1363 1245 1331 1434 1609 1655 1710 1775 2141 2223 2418 2350 1498 1486 1725 1531 1374 1354 1328 1473 1598 1327 1167 1538 1351 1093 996 891 753 646 596 375 292 212 263 56 97 131 93 43 37 0 0 0 0 0 0 0 0 0 0 0 0
2712 2426 2266 2305 2004 2027 1772 1642 1570 1525 1412 1269 1442 1524 1742 1831 1799 1973 2271 2208 1928 2194 1663 1390 1329 1447 1217 1184 1140 1376 1072 1110 1378 1306 1227 1072 1000 1027 985 767 688 341 395 403 230 260 74 41 82 84 41 22 1 0 0 0 0 0 0 0 0 0 0
3002 2751 2506 2354 2222 2214 2044 1793 1752 1634 1443 1252 1408 1557 1695 1984 1927 2285 2443 2166 2246 2130 1889 1370 1431 1119 1119 1119 1218 1730 1658 1544 1188 1418 1224 973 1001 1037 1026 992 646 373 298 435 342 232 217 149 122 124 64 35 32 50 0 0 0 0 0 0 0 0 0
3268 2996 2800 2599 2400 2201 2232 2060 1854 1762 1464 1484 1376 1582 1554 1987 1943 2152 2420 2232 2027 2256 1735 1589 1224 1343 1162 1184 1410 1957 1675 1569 1557 1433 1436 1352 1328 1216 1114 842 795 425 416 506 407 236 284 261 202 67 145 76 29 1 0 0 0 0 0 0 0 0 0
3435 3119 2968 2764 2659 2338 2174 1967 2013 1896 1832 1490 1136 1354 1413 1702 2147 2161 2293 2464 2528 1858 1460 1578 1242 1262 1270 1224 1834 1806 1609 1833 1666 1448 1392 1335 1309 1158 1119 1041 834 492 505 478 265 388 200 293 264 240 165 53 43 0 0 0 0 0 0 0 0 0 0
3382 3340 3082 2838 2899 2703 2391 1995 2235 2153 1775 1688 1433 1183 1542 1659 2132 2301 2363 2430 1811 2234 1532 1380 1344 1316 1293 1687 1574 1728 1860 1795 1810 1612 1692 1649 1322 1276 1281 1109 1049 788 430 432 347 358 285 340 261 198 116 93 39 13 0 0 0 0 0 0 0 0 0
3550 3455 3403 3099 3071 2917 2647 2166 2133 2158 1979 1870 1800 1560 1726 1880 2092 2227 2417 2330 2290 1534 1545 1578 1658 1362 1486 1483 1444 1479 1289 1313 1430 1605 1728 1607 1320 1304 1130 1068 1000 907 523 464 379 301 315 283 225 208 55 24 28 8 0 0 0 0 0 0 0 0 0
3597 3425 3515 3373 3100 2908 2809 2564 2515 2343 2090 1988 2136 2020 1861 1932 2172 2191 2186 2109 2224 1624 1413 1494 1738 1406 1399 1419 1156 1198 943 912 1032 1413 1512 1288 1301 922 860 804 691 684 697 455 392 393 389 412 234 70 5 23 41 5 0 0 0 0 0 0 0 0 0
3586 3523 3520 3370 3310 3049 2850 2737 2722 2659 2543 2375 2253 2289 2172 1972 2073 2106 2252 2004 1894 1762 1772 1803 1508 1376 1432 1261 1072 1021 949 970 1011 1162 1218 906 701 715 845 818 690 653 660 578 392 464 348 214 118 15 39 12 9 3 0 0 0 0 0 0 0 0 0
3464 3347 3467 3431 3128 2568 2532 2795 2785 2899 2820 2583 2486 2226 1878 1802 1997 2003 2017 1878 1829 1986 2091 1370 1470 1565 1169 1106 1067 1069 1024 957 844 699 613 537 427 687 701 647 684 715 672 543 251 160 132 71 25 46 52 22 0 0 0 0 0 0 0 0 0 0 0
3522 3348 3463 3358 3202 2739 3003 2828 2678 2850 2805 2817 2073 2302 2283 1991 1564 2070 2154 2086 2152 2274 1774 1473 1303 1273 1217 1224 1136 1023 1021 973 844 728 615 562 406 381 385 381 437 506 523 258 76 68 19 16 29 32 0 0 0 0 0 0 0 0 0 0 0 0 0
3521 3250 3448 3470 3351 3001 2939 2908 2746 2891 2945 2759 2494 2354 2357 2185 1954 2029 2129 2066 1995 1893 1540 1410 1457 1389 1256 1248 1050 948 1041 842 637 556 568 448 395 228 266 194 128 169 188 14 28 14 20 1 0 0 0 0 0 0 0 0 0 0 0 0 0 0 0
3317 3344 3375 3430 3169 2556 2962 2821 2881 2954 2945 2864 2642 2468 2441 2189 1763 1852 1976 1839 1878 1632 1577 1564 1406 1255 1105 1092 961 845 754 745 605 519 465 304 264 189 38 65 95 68 40 22 17 0 0 0 0 0 0 0 0 0 0 0 0 0 0 0 0 0 0
3166 3362 3232 3388 3243 2982 2964 2874 2822 2894 2840 2890 2723 2504 2463 2196 2039 1845 1834 1909 1952 1614 1422 1346 1237 1199 938 770 836 810 742 748 642 483 379 289 86 140 46 55 112 50 18 9 0 0 0 0 0 0 0 0 0 0 0 0 0 0 0 0 0 0 4
3352 3324 3393 3302 3342 3200 3012 2873 2847 2512 2887 2912 2676 2624 2198 1967 2053 1736 1881 1918 1935 1866 1552 1372 1191 1071 1062 822 743 801 679 607 601 445 341 239 152 38 53 8 53 14 0 0 0 0 0 0 0 0 0 0 0 0 0 0 0 0 0 0 0 1 5
3200 3313 3318 3341 3373 3195 3101 2946 2866 2748 2610 2766 2741 2546 2293 1835 1730 1531 1748 1861 1980 1846 1507 1356 1233 1039 978 870 786 790 698 564 551 445 238 56 39 46 2 0 0 0 0 0 0 0 0 0 0 0 0 0 0 0 0 0 0 0 0 0 0 3 0
3259 3306 3326 3230 3452 3114 2811 2887 2841 2728 2317 2751 2688 2526 2221 1845 1657 1735 1660 1820 1934 1677 1518 1330 1184 976 832 733 596 709 656 604 429 317 162 71 29 1 0 0 0 0 0 0 0 0 0 0 0 0 0 0 0 0 0 0 0 0 0 2 0 2 4
3367 3353 3226 3267 3378 3154 2746 2834 2787 2686 2506 2656 2663 2420 2385 2229 1778 1661 1673 1814 1824 1689 1382 1269 1125 919 765 675 528 575 596 540 307 124 65 4 0 0 0 0 0 0 0 0 0 0 0 0 0 0 0 0 0 0 0 0 0 0 13 6 4 8 6
2925 2936 3050 3128 3233 3129 2919 2787 2719 2690 2704 2656 2514 2380 2297 2127 1795 1678 1426 1690 1714 1534 1569 1285 1100 913 763 665 501 528 468 315 188 59 2 0 0 0 0 0 0 0 0 0 0 0 0 0 0 0 0 0 0 0 0 0 0 0 20 14 10 10 3
2598 2798 2850 3002 3167 3166 3044 2858 2759 2691 2623 2400 2438 2391 2249 2156 1615 1883 1437 1527 1699 1788 1653 1570 1120 897 750 634 476 335 492 154 87 1 0 0 0 0 0 0 0 0 0 0 0 0 0 0 0 0 0 0 0 0 0 0 0 16 14 23 13 0 0
2929 2892 2906 2555 3030 3161 2689 2746 2739 2632 2508 2299 2554 2366 2191 2056 1554 1486 1443 1356 1632 1714 1721 1492 1109 965 791 732 568 380 380 192 2 1 0 0 0 0 0 0 0 0 0 0 0 0 0 0 0 0 0 0 0 3 0 0 1 16 21 2 0 0 0
2868 2910 2981 2734 3050 3038 2843 2712 2633 2674 2583 2507 2479 2417 2255 2089 1723 1770 1531 1327 1414 1629 1794 1212 1080 939 854 887 837 648 440 48 9 4 0 0 0 0 0 0 0 0 0 0 0 0 0 0 0 0 0 0 0 0 0 0 90 25 4 0 0 0 0
2822 2846 2778 2482 2721 2847 2692 2619 2603 2664 2555 2501 2386 2289 2264 2132 1851 1700 1712 1470 1272 1367 1611 1213 1026 969 969 1087 1077 974 742 432 333 2 0 0 0 0 0 0 0 0 0 0 0 0 0 0 0 0 0 0 0 0 0 6 17 10 0 0 0 0 0
2707 2674 2535 2312 2628 2778 2489 2501 2447 2421 2200 2164 2318 2253 2276 2214 1916 1503 1608 1566 1566 1161 1523 1034 1039 1033 1216 1176 1111 1036 868 611 235 2 1 0 0 0 0 0 0 0 0 0 0 0 0 0 0 0 0 0 0 0 4 18 18 2 0 0 0 0 0
2621 2554 2307 2243 2340 2457 2320 2361 2324 2279 2162 2208 2160 2058 2241 2124 1950 1576 1387 1391 1203 1486 944 1022 1175 1410 1276 1154 1081 1002 894 706 494 192 1 0 32 2 0 0 0 0 0 0 0 0 0 0 0 0 0 0 0 5 19 29 18 0 0 0 0 0 0
2561 2568 2490 2266 2518 2327 2365 2335 2222 2158 2154 2252 2036 2016 1800 1813 1695 1638 1528 1390 1391 1205 998 1111 1370 1398 1280 1191 1008 782 710 739 585 386 3 207 232 186 120 0 0 0 0 0 0 0 0 0 0 0 0 0 3 15 31 38 16 3 0 3 0 0 2
2501 2346 2320 2415 2602 2448 2267 2239 2241 1892 2143 2320 2197 1977 1735 1715 1700 1662 1609 1449 1186 996 1036 1184 1366 1358 1270 1140 941 645 517 673 643 514 381 241 259 260 214 126 0 0 0 0 0 0 0 0 0 0 0 1 10 17 33 41 15 1 0 0 0 0 0
2530 2464 2308 2260 2263 2072 2218 2116 2088 1824 2239 2017 1803 1750 1640 1759 1790 1700 1629 1582 1338 1085 1205 1244 1380 1342 1203 1066 915 628 423 534 625 500 356 280 274 306 298 240 174 0 69 139 91 0 0 0 0 0 0 4 12 24 27 33 8 0 0 0 0 0 0
2290 2243 1988 2277 2282 2063 1963 1962 1715 1987 2132 1914 1696 1623 1600 1763 1836 1742 1637 1606 1434 1130 1231 1370 1412 1257 1173 984 907 742 547 471 539 472 364 338 327 314 349 314 222 179 166 159 122 0 0 0 0 0 0 1 13 24 30 19 1 0 0 0 0 0 0
2231 2213 2200 2248 2300 2086 1892 1904 2055 2033 2018 1864 1588 1529 1577 1719 1764 1651 1541 1465 1341 1082 1182 1497 1398 1203 1054 882 820 804 688 472 516 464 436 357 362 347 349 369 298 192 198 174 137 52 0 0 0 0 1 7 14 17 23 14 0 0 0 0 0 0 0
2316 2407 2202 2146 2059 1886 1835 2024 2149 2150 2067 1679 1512 1465 1504 1512 1493 1471 1420 1354 1174 1044 1227 1361 1175 1064 875 796 835 790 799 726 586 500 467 426 400 385 370 384 366 245 210 186 145 38 0 0 1 3 0 1 0 34 11 5 0 0 0 0 0 0 0
2552 2447 2191 1971 1931 1901 1858 1974 2124 2087 1883 1622 1492 1439 1418 1395 1314 1301 1208 983 761 875 1108 1105 1114 1072 953 1006 993 799 771 941 895 721 583 482 438 428 404 402 413 313 223 194 150 0 0 1 3 0 7 11 6 8 14 2 0 0 0 0 0 0 0
2386 2310 2163 2031 1968 1920 1968 2004 2042 1812 1608 1564 1474 1404 1396 1299 1321 1310 1068 668 467 720 1022 1102 1093 1130 1048 952 794 691 723 786 729 650 534 474 443 505 464 459 476 367 253 205 50 0 0 1 28 29 32 25 26 31 22 0 0 0 0 0 0 0 0
2475 2302 2130 2039 1998 1958 1974 2022 1866 1624 1618 1555 1406 1339 1302 1308 1324 1120 820 549 433 699 1020 1076 1043 1126 1105 945 735 659 510 394 484 533 520 501 463 501 515 557 471 394 256 198 130 24 0 3 27 43 28 22 27 23 7 0 0 0 0 0 0 0 0
Wind_Speed
22 22 21 20 20 21 21 24 24 23 23 24 23 23 25 24 25 25 25 26 24 22 20 20 19 16 15 17 17 19 19 20 20 20 23 27 26 22 21 20 20 22 23 23 21 19 18 nan nan nan nan nan nan nan nan nan nan nan nan nan nan nan nan
25 23 21 19 23 23 24 25 25 25 24 23 24 24 24 24 26 25 25 26 24 23 23 21 21 18 14 16 18 17 18 18 19 19 20 23 23 22 22 22 22 23 24 25 23 21 19 18 nan nan nan nan nan nan nan nan nan nan nan nan nan nan nan
25 25 22 24 24 25 25 26 26 26 25 23 23 24 24 24 25 25 25 25 25 24 22 20 24 20 15 15 15 17 17 18 19 19 19 22 22 21 21 22 23 23 23 24 25 23 20 17 nan nan nan nan nan nan nan nan nan nan nan nan nan nan nan
25 26 25 24 24 24 24 25 25 25 24 24 24 23 24 23 25 25 24 25 25 25 24 21 18 22 18 17 13 15 18 19 20 20 20 21 20 20 21 22 23 23 23 25 23 nan nan 20 nan nan nan nan nan nan nan nan nan nan nan nan nan nan nan
24 26 26 25 25 25 25 26 26 25 23 24 25 24 24 23 24 25 25 25 26 26 26 25 22 18 21 18 14 17 18 19 20 19 19 20 21 20 21 21 21 21 23 23 22 21 nan nan nan nan nan nan nan nan nan nan nan nan nan nan nan nan nan
23 26 27 26 25 26 26 26 27 25 24 24 26 24 23 24 25 26 26 25 26 29 27 24 22 22 20 16 16 20 20 21 20 19 19 19 21 20 20 21 20 22 21 22 20 19 20 18 18 18 nan nan nan nan nan nan nan nan nan nan nan nan nan
23 26 26 27 27 26 27 27 28 25 25 25 26 24 23 24 25 25 26 25 26 30 30 24 22 21 18 16 19 22 22 20 19 19 18 19 19 20 19 19 21 20 22 21 20 19 19 19 19 nan 17 nan nan nan nan nan nan nan nan nan nan nan nan
23 25 25 26 28 28 27 29 29 27 26 26 25 24 23 24 26 26 27 26 28 30 31 25 23 20 20 17 20 21 22 21 19 19 18 19 19 19 19 20 20 21 21 20 20 18 18 20 19 18 18 nan nan nan nan nan nan nan nan nan nan nan nan
24 23 23 25 27 28 29 29 31 30 28 27 26 26 25 25 27 27 29 28 29 30 28 27 25 23 22 20 21 22 22 21 20 20 18 20 19 19 19 20 19 20 21 21 20 19 18 19 20 19 18 nan nan nan nan nan nan nan nan nan nan nan nan
22 18 19 24 27 30 29 29 32 32 31 29 29 28 28 27 28 29 30 30 29 32 27 25 23 23 24 21 21 22 22 21 20 18 19 19 19 19 20 21 21 21 21 21 20 19 20 18 18 19 nan nan nan nan nan nan nan nan nan nan nan nan nan
21 17 16 21 25 29 30 31 32 33 33 33 32 32 31 31 30 31 31 30 29 29 29 25 23 23 23 22 21 21 22 22 22 20 19 19 18 19 19 21 21 21 21 21 21 20 18 20 20 nan nan nan nan nan nan nan nan nan nan nan nan nan nan
20 18 17 19 23 26 29 31 34 35 36 36 35 35 34 34 32 31 31 29 27 27 29 27 25 23 22 21 21 21 21 21 21 19 19 19 19 18 19 19 21 21 22 21 21 21 20 20 20 nan nan nan nan nan nan nan nan nan nan nan nan nan nan
18 16 18 19 20 22 27 31 35 36 36 36 36 37 35 35 33 31 31 28 26 26 28 27 26 24 22 21 22 21 21 22 21 20 20 19 18 19 19 20 21 22 23 23 22 21 22 nan nan nan nan nan nan nan nan nan nan nan nan nan nan nan nan
20 19 19 19 20 22 27 30 33 36 36 35 36 38 36 34 32 30 30 27 26 26 26 27 25 23 23 22 22 22 21 21 21 20 19 21 20 19 20 21 23 24 23 23 nan nan nan nan nan nan nan nan nan nan nan nan nan nan nan nan nan nan nan
22 21 22 21 22 25 28 29 33 36 35 34 35 37 36 32 29 29 28 27 25 26 26 26 25 23 23 23 21 22 21 21 21 19 19 19 22 21 20 21 23 25 25 nan nan nan nan nan nan nan nan nan nan nan nan nan nan nan nan nan nan nan nan
23 23 21 22 21 25 30 29 32 35 35 35 34 34 33 30 29 28 27 26 26 26 26 25 24 24 23 23 22 23 22 21 21 20 19 19 19 20 nan nan nan nan nan nan nan nan nan nan nan nan nan nan nan nan nan nan nan nan nan nan nan nan nan
24 24 23 24 23 24 30 30 31 34 36 35 33 31 31 30 29 28 27 28 27 27 27 26 25 24 23 23 22 22 23 21 22 21 19 19 nan 18 nan nan 21 nan nan nan nan nan nan nan nan nan nan nan nan nan nan nan nan nan nan nan nan nan nan
28 25 23 24 23 26 29 31 32 34 36 35 33 31 29 29 29 29 29 29 29 28 27 26 26 25 24 24 23 23 24 22 21 20 20 19 18 nan nan nan nan nan nan nan nan nan nan nan nan nan nan nan nan nan nan nan nan nan nan nan nan nan nan
30 26 21 22 26 29 30 30 31 33 34 35 34 30 28 28 28 30 31 32 31 30 27 25 24 25 24 24 23 24 26 23 22 21 20 nan nan nan nan nan nan nan nan nan nan nan nan nan nan nan nan nan nan nan nan nan nan nan nan nan nan nan nan
32 29 24 23 27 30 30 30 30 31 33 35 35 31 27 27 28 29 33 34 33 30 27 25 25 25 25 24 25 25 25 24 22 22 21 nan nan nan nan nan nan nan nan nan nan nan nan nan nan nan nan nan nan nan nan nan nan nan nan nan nan nan nan
33 31 26 23 27 31 31 32 31 31 32 34 36 33 28 26 28 30 33 35 34 31 27 26 25 26 26 25 27 26 25 25 23 22 nan nan nan nan nan nan nan nan nan nan nan nan nan nan nan nan nan nan nan nan nan nan nan nan nan nan nan nan nan
35 33 29 25 27 30 33 32 31 33 34 33 36 35 29 27 29 31 32 35 35 32 28 25 25 27 27 28 29 26 24 25 24 nan nan nan nan nan nan nan nan nan nan nan nan nan nan nan nan nan nan nan nan nan nan nan nan nan nan nan nan nan nan
37 35 33 29 27 29 34 37 35 35 36 33 35 37 31 27 29 31 32 34 34 33 29 27 28 31 30 30 29 27 27 26 nan nan nan nan nan nan nan nan nan nan nan nan nan nan nan nan nan nan nan nan nan nan nan nan nan nan nan nan nan nan nan
39 38 37 33 31 30 33 41 40 36 36 34 36 39 32 29 29 31 32 34 34 32 31 30 34 35 36 32 29 29 28 26 nan nan nan nan nan nan nan nan nan nan nan nan nan nan nan nan nan nan nan nan nan nan nan nan nan nan nan nan nan nan nan
41 41 40 35 33 31 35 43 43 41 39 35 37 40 33 28 30 31 32 33 32 31 31 38 41 41 40 37 31 30 29 nan nan nan nan nan nan nan nan nan nan nan nan nan nan nan nan nan nan nan nan nan nan nan nan nan nan nan nan nan nan nan nan
41 42 40 36 35 35 37 45 45 44 41 39 39 38 34 29 30 32 33 33 33 32 31 42 44 44 42 40 33 28 30 28 28 nan nan nan nan nan nan nan nan nan nan nan nan nan nan nan nan nan nan nan nan nan nan nan nan nan nan nan nan nan nan
44 43 41 39 40 38 39 47 46 44 43 43 40 37 34 29 31 33 36 36 34 31 32 41 45 44 43 41 39 35 32 30 28 nan nan nan nan nan nan nan nan nan nan nan nan nan nan nan nan nan nan nan nan nan nan nan nan nan nan nan nan nan nan
48 46 43 41 41 39 43 48 46 46 44 42 38 38 36 31 31 35 39 39 37 33 34 43 46 44 42 42 41 38 33 31 29 28 nan nan nan nan nan nan nan nan nan nan nan nan nan nan nan nan nan nan nan nan nan nan nan nan nan nan nan nan nan
50 49 46 44 43 41 46 47 45 45 45 41 39 38 34 32 34 38 41 41 37 33 37 45 47 45 44 42 43 38 35 31 29 29 nan 30 31 31 31 nan nan nan nan nan nan nan nan nan nan nan nan nan nan nan nan nan nan nan nan nan nan nan nan
50 49 47 45 44 44 46 45 46 45 43 41 40 38 35 35 37 39 40 39 37 34 40 42 47 47 45 44 42 38 37 33 31 30 30 31 31 31 32 34 nan nan nan nan nan nan nan nan nan nan nan nan nan nan nan nan nan nan nan nan nan nan nan
49 47 45 41 40 43 48 48 46 44 40 39 38 38 37 38 37 37 38 37 36 34 40 42 48 48 48 45 42 39 37 35 31 31 31 31 32 33 33 36 36 nan nan 40 nan nan nan nan nan nan nan nan nan nan nan nan nan nan nan nan nan nan nan
44 42 40 40 42 46 48 45 42 42 39 38 38 38 37 36 36 37 37 35 37 35 41 43 47 50 49 47 43 39 38 35 33 33 32 33 33 34 34 36 36 35 37 47 55 nan nan nan nan nan nan nan nan nan nan nan nan nan nan nan nan nan nan
41 40 38 43 47 47 47 44 43 42 41 38 39 37 38 36 37 38 38 37 40 36 41 43 45 50 50 48 44 42 39 36 34 34 34 35 36 34 34 35 38 39 49 56 55 nan nan nan nan nan nan nan nan nan nan nan nan nan nan nan nan nan nan
39 41 42 45 47 46 45 42 42 42 39 37 39 38 39 38 38 38 38 39 39 37 39 43 44 49 50 48 44 42 41 38 36 36 37 37 36 36 35 36 37 49 54 55 56 nan nan nan nan nan nan nan nan nan nan nan nan nan nan nan nan nan nan
41 44 44 45 44 43 42 41 41 42 40 40 39 38 39 40 39 41 40 40 38 37 41 47 45 46 49 47 44 39 40 41 40 39 39 37 38 37 37 37 39 49 56 56 55 nan nan nan nan nan nan nan nan nan nan nan nan nan nan nan nan nan nan
43 41 42 41 41 40 42 42 42 42 40 40 39 38 38 40 40 41 41 39 40 39 43 45 51 47 47 48 45 40 39 43 42 42 40 38 38 39 39 39 47 56 58 57 nan nan nan nan nan nan nan nan nan nan nan nan nan nan nan nan nan nan nan
46 41 40 41 42 43 43 42 43 42 41 40 39 37 38 39 41 41 42 40 41 43 45 43 45 49 46 45 44 41 39 44 46 42 42 40 40 40 41 46 49 58 60 59 56 nan nan nan nan nan nan nan nan nan nan nan nan nan nan nan nan nan nan
Wind_Direction
271 271 271 272 276 279 286 289 289 292 301 309 313 315 314 314 311 313 316 316 315 309 305 302 295 295 300 301 305 307 309 316 316 312 315 311 321 322 324 317 318 316 318 312 309 305 300 nan nan nan nan nan nan nan nan nan nan nan nan nan nan nan nan
271 270 269 270 274 277 284 285 288 292 297 304 311 314 312 313 310 312 315 316 316 310 301 299 298 294 303 299 303 304 310 310 307 311 312 314 324 319 318 322 319 318 319 317 313 305 303 305 nan nan nan nan nan nan nan nan nan nan nan nan nan nan nan
266 266 267 270 274 278 282 286 288 290 294 298 307 314 311 313 312 312 314 318 316 310 300 305 296 295 289 291 299 309 313 312 306 312 314 312 315 318 321 316 319 320 318 316 314 307 303 307 nan nan nan nan nan nan nan nan nan nan nan nan nan nan nan
271 271 271 274 278 280 286 290 289 292 294 299 303 306 310 310 309 311 313 316 313 305 300 286 280 286 300 291 294 320 318 317 309 311 317 318 316 317 321 320 319 319 317 314 311 nan nan 309 nan nan nan nan nan nan nan nan nan nan nan nan nan nan nan
270 268 275 281 283 286 288 289 290 293 296 296 298 303 306 309 307 308 311 315 310 306 298 295 293 296 291 297 305 322 318 315 310 315 318 321 320 318 320 319 319 317 314 311 307 304 nan nan nan nan nan nan nan nan nan nan nan nan nan nan nan nan nan
264 269 276 282 284 284 287 291 292 296 298 299 300 303 305 309 306 306 309 311 310 301 300 300 300 299 292 294 323 319 316 315 315 316 318 322 324 323 320 322 322 320 315 311 307 308 307 307 306 310 nan nan nan nan nan nan nan nan nan nan nan nan nan
257 265 271 281 286 286 288 291 296 298 300 301 302 304 303 307 304 304 304 308 307 301 298 302 301 295 297 310 322 315 312 312 316 321 320 323 325 329 324 321 321 321 318 313 315 313 311 309 310 nan 309 nan nan nan nan nan nan nan nan nan nan nan nan
249 256 267 277 286 289 293 295 295 297 297 300 305 303 305 306 304 303 304 306 304 305 305 309 307 301 308 313 305 310 308 308 314 319 323 327 324 330 331 327 323 323 320 319 314 315 311 308 307 308 310 nan nan nan nan nan nan nan nan nan nan nan nan
243 251 262 274 282 287 292 296 295 295 297 302 305 305 305 303 304 303 301 304 306 304 306 315 312 309 305 305 303 305 307 305 312 321 324 326 327 331 329 328 323 324 323 320 322 316 309 303 304 306 303 nan nan nan nan nan nan nan nan nan nan nan nan
242 254 267 282 287 288 291 294 296 299 303 303 303 304 304 303 302 301 301 304 306 301 309 309 313 307 300 301 300 304 307 313 310 323 323 324 327 327 328 330 325 325 326 323 322 316 312 304 302 310 nan nan nan nan nan nan nan nan nan nan nan nan nan
234 249 270 283 284 289 291 293 293 297 304 304 303 304 305 305 303 302 302 303 302 305 309 312 313 306 300 297 306 311 313 315 318 318 319 323 324 325 326 325 325 326 327 326 317 311 303 303 306 nan nan nan nan nan nan nan nan nan nan nan nan nan nan
230 244 265 282 284 291 297 297 296 295 298 303 305 306 307 306 305 304 299 300 302 309 311 314 312 305 304 301 306 308 311 314 314 316 320 321 321 319 320 323 325 325 325 322 316 311 310 306 313 nan nan nan nan nan nan nan nan nan nan nan nan nan nan
232 249 262 274 285 296 299 300 298 297 298 301 306 311 310 308 308 306 301 304 308 308 309 313 309 303 299 298 303 303 308 313 316 317 316 319 320 321 324 327 326 324 325 324 319 315 312 nan nan nan nan nan nan nan nan nan nan nan nan nan nan nan nan
240 252 261 273 278 287 289 293 298 296 298 305 309 310 309 308 311 308 306 307 310 307 311 312 308 305 302 301 303 308 310 312 313 313 317 319 322 323 324 328 327 327 327 328 nan nan nan nan nan nan nan nan nan nan nan nan nan nan nan nan nan nan nan
241 250 259 271 275 284 287 293 294 295 300 305 310 312 312 308 309 310 308 309 308 309 312 314 311 303 300 300 305 302 305 308 310 313 316 321 321 322 327 333 332 330 330 nan nan nan nan nan nan nan nan nan nan nan nan nan nan nan nan nan nan nan nan
242 251 260 269 279 284 282 288 290 293 297 301 307 311 310 312 313 314 311 306 306 309 312 313 304 303 301 300 304 300 298 305 308 312 318 325 331 326 nan nan nan nan nan nan nan nan nan nan nan nan nan nan nan nan nan nan nan nan nan nan nan nan nan
245 249 256 262 277 284 282 284 287 291 296 297 306 308 309 312 313 315 311 306 305 305 309 307 304 301 303 301 299 301 301 304 306 311 319 323 nan 323 nan nan 328 nan nan nan nan nan nan nan nan nan nan nan nan nan nan nan nan nan nan nan nan nan nan
245 251 256 262 276 283 280 278 280 290 294 298 303 304 308 311 315 317 310 307 304 306 310 312 307 302 295 294 298 298 299 302 305 310 315 320 319 nan nan nan nan nan nan nan nan nan nan nan nan nan nan nan nan nan nan nan nan nan nan nan nan nan nan
246 253 262 267 268 273 273 275 280 286 295 299 300 304 310 312 317 320 313 307 304 306 309 311 308 302 300 296 294 294 294 300 305 308 315 nan nan nan nan nan nan nan nan nan nan nan nan nan nan nan nan nan nan nan nan nan nan nan nan nan nan nan nan
245 251 255 263 264 269 274 273 280 287 291 294 297 301 308 313 312 317 313 308 306 309 313 311 303 299 299 298 296 295 295 299 303 306 312 nan nan nan nan nan nan nan nan nan nan nan nan nan nan nan nan nan nan nan nan nan nan nan nan nan nan nan nan
243 249 252 259 262 266 271 271 276 281 286 290 293 300 307 310 310 313 312 307 307 306 310 307 303 297 295 294 292 292 294 296 301 307 nan nan nan nan nan nan nan nan nan nan nan nan nan nan nan nan nan nan nan nan nan nan nan nan nan nan nan nan nan
241 248 253 258 260 263 266 270 274 278 280 283 283 294 301 306 309 312 312 307 306 305 307 303 295 291 290 290 287 291 294 297 301 nan nan nan nan nan nan nan nan nan nan nan nan nan nan nan nan nan nan nan nan nan nan nan nan nan nan nan nan nan nan
241 249 254 260 263 263 264 266 268 274 279 283 284 286 294 300 305 309 310 309 306 301 300 294 291 300 293 288 290 289 288 292 nan nan nan nan nan nan nan nan nan nan nan nan nan nan nan nan nan nan nan nan nan nan nan nan nan nan nan nan nan nan nan
243 249 254 261 262 263 267 265 266 274 277 279 279 283 290 301 303 306 308 308 308 302 296 290 294 295 295 292 290 287 287 292 nan nan nan nan nan nan nan nan nan nan nan nan nan nan nan nan nan nan nan nan nan nan nan nan nan nan nan nan nan nan nan
246 248 254 266 269 267 266 264 266 268 272 277 276 279 287 298 302 299 300 305 307 301 292 284 292 291 289 286 282 287 288 nan nan nan nan nan nan nan nan nan nan nan nan nan nan nan nan nan nan nan nan nan nan nan nan nan nan nan nan nan nan nan nan
249 249 258 268 268 265 267 263 263 265 271 271 270 279 287 293 293 296 297 302 303 303 292 287 292 292 288 288 288 290 289 289 294 nan nan nan nan nan nan nan nan nan nan nan nan nan nan nan nan nan nan nan nan nan nan nan nan nan nan nan nan nan nan
250 253 259 265 265 264 266 262 262 264 266 267 270 279 285 292 292 295 294 294 294 296 290 289 292 292 290 291 290 288 288 291 293 nan nan nan nan nan nan nan nan nan nan nan nan nan nan nan nan nan nan nan nan nan nan nan nan nan nan nan nan nan nan
253 256 261 263 265 266 263 259 261 261 264 270 276 279 280 287 289 292 293 292 296 296 288 294 293 294 294 292 291 285 287 288 291 295 nan nan nan nan nan nan nan nan nan nan nan nan nan nan nan nan nan nan nan nan nan nan nan nan nan nan nan nan nan
255 259 261 261 261 263 261 260 263 264 265 269 274 275 281 285 290 291 293 294 296 304 287 298 294 296 295 292 291 282 285 290 292 294 nan 297 300 302 305 nan nan nan nan nan nan nan nan nan nan nan nan nan nan nan nan nan nan nan nan nan nan nan nan
255 257 260 262 262 262 263 264 261 264 267 270 275 280 282 287 288 292 294 295 299 300 285 296 294 293 292 291 286 281 283 289 290 292 294 295 299 302 304 307 nan nan nan nan nan nan nan nan nan nan nan nan nan nan nan nan nan nan nan nan nan nan nan
254 256 258 262 263 261 257 254 256 263 270 276 277 276 278 279 284 289 294 300 302 300 285 290 292 292 292 292 290 283 283 288 292 291 292 294 295 298 303 308 309 nan nan 306 nan nan nan nan nan nan nan nan nan nan nan nan nan nan nan nan nan nan nan
254 257 258 258 257 256 255 259 261 261 266 271 271 272 276 283 285 287 289 294 295 301 285 289 294 295 296 297 292 283 284 289 290 289 291 291 293 293 297 300 305 305 307 301 307 nan nan nan nan nan nan nan nan nan nan nan nan nan nan nan nan nan nan
253 255 256 253 251 253 253 256 259 262 264 268 270 277 278 282 285 284 285 290 288 299 288 288 295 299 299 299 298 288 284 291 291 290 290 289 290 291 295 298 301 292 295 304 306 nan nan nan nan nan nan nan nan nan nan nan nan nan nan nan nan nan nan
253 251 251 248 248 250 253 256 258 261 265 267 269 273 277 281 284 285 283 287 289 296 286 289 293 299 298 299 299 292 286 288 290 289 288 287 288 290 292 295 298 292 301 303 305 nan nan nan nan nan nan nan nan nan nan nan nan nan nan nan nan nan nan
249 247 248 249 250 251 253 256 257 259 260 263 268 272 275 279 281 279 278 281 288 294 290 293 288 296 298 299 300 297 287 286 285 285 286 285 287 288 290 294 294 294 298 300 302 nan nan nan nan nan nan nan nan nan nan nan nan nan nan nan nan nan nan
245 247 247 248 252 253 252 255 259 261 264 266 269 273 278 279 281 281 281 282 281 288 286 289 293 290 296 300 303 299 292 286 285 280 282 283 285 286 288 289 284 293 296 298 nan nan nan nan nan nan nan nan nan nan nan nan nan nan nan nan nan nan nan
242 244 246 246 247 249 253 256 258 259 262 264 268 275 277 281 280 281 283 285 283 284 281 284 289 294 293 299 300 298 288 281 281 279 279 278 280 283 286 283 288 293 295 298 304 nan nan nan nan nan nan nan nan nan nan nan nan nan nan nan nan nan nan